Starlink 1669

operational
NORAD ID: 47624 Int'l Des: 2021-012 Owner: SPXS Country: US Constellation: starlink
LEOCIRCULAR

Starlink 1669について

説明を読み込み中...

リアルタイム位置

3D地球を読み込み中...

次回通過

高度履歴

Altitude vs Time

uPlot chart will show altitude changes over time

軌道要素

1 47624U 21012E 26033.66670139 .00199489 00000-0 22641-2 0 9998
2 47624 53.0394 164.4117 0003967 278.1921 280.7870 15.61189793 5836
Epoch: Feb 2, 2026 • Age: 8 hours

現在のステータス

高度 399.6 km
速度 7.67 km/s
衛星直下点 -53.14°S, 56.6°W
打ち上げ日 Feb 16, 2021
運用期間 4.9 years
タイプ internet

技術仕様

分類 Payload
質量 260.00 kg
乾燥質量 248.00 kg
総質量 260.00 kg
長さ 0.20 m
直径 2.80 m
スパン 9.00 m
形状 Box + pan
製造者 SPXS
バスタイプ Starlink
フェーズステータス In Orbit
所有者/国 SPXS/US

大規模コンステレーション

Loading constellations...